Time,TemperatureF,DewpointF,PressureIn,WindDirection,WindDirectionDegrees,WindSpeedMPH,WindSpeedGustMPH,Humidity,HourlyPrecipIn,Conditions,Clouds,dailyrainin,SolarRadiationWatts/m^2,SoftwareType,DateUTC
2013-08-05 00:16:00,77.2,75.0,30.04,ENE,61,0.0,-999.0,94,-99.99,,,0.00,0,weatherlink.com 1.10,2013-08-05 04:16:00,
2013-08-05 01:16:00,76.9,75.0,30.04,ENE,61,0.0,-999.0,94,-99.99,,,0.00,0,weatherlink.com 1.10,2013-08-05 05:16:00,
2013-08-05 01:31:00,76.8,75.0,30.04,ENE,61,0.0,-999.0,94,-99.99,,,0.00,0,weatherlink.com 1.10,2013-08-05 05:31:00,
2013-08-05 01:46:00,76.8,75.0,30.03,ENE,61,0.0,-999.0,95,-99.99,,,0.00,0,weatherlink.com 1.10,2013-08-05 05:46:00,
2013-08-05 02:01:00,76.6,75.0,30.03,ENE,61,0.0,-999.0,95,-99.99,,,0.00,0,weatherlink.com 1.10,2013-08-05 06:01:00,
2013-08-05 02:16:00,76.6,75.0,30.02,ENE,61,0.0,-999.0,95,-99.99,,,0.00,0,weatherlink.com 1.10,2013-08-05 06:16:00,
2013-08-05 02:31:00,76.4,75.0,30.02,ENE,61,0.0,-999.0,95,-99.99,,,0.00,0,weatherlink.com 1.10,2013-08-05 06:31:00,
2013-08-05 02:46:00,76.2,75.0,30.01,ENE,61,0.0,-999.0,95,-99.99,,,0.00,0,weatherlink.com 1.10,2013-08-05 06:46:00,
2013-08-05 03:01:00,76.2,75.0,30.01,ENE,61,0.0,-999.0,95,-99.99,,,0.00,0,weatherlink.com 1.10,2013-08-05 07:01:00,
2013-08-05 03:16:00,76.3,75.0,30.00,ENE,61,0.0,-999.0,95,-99.99,,,0.00,0,weatherlink.com 1.10,2013-08-05 07:16:00,
2013-08-05 03:31:00,76.1,75.0,30.00,ENE,61,0.0,-999.0,95,-99.99,,,0.00,0,weatherlink.com 1.10,2013-08-05 07:31:00,
2013-08-05 03:46:00,76.1,75.0,30.00,ENE,61,0.0,-999.0,95,-99.99,,,0.00,0,weatherlink.com 1.10,2013-08-05 07:46:00,
2013-08-05 04:01:00,76.1,75.0,29.99,ENE,61,0.0,-999.0,95,-99.99,,,0.00,0,weatherlink.com 1.10,2013-08-05 08:01:00,
2013-08-05 04:16:00,76.1,75.0,29.99,ENE,61,0.0,-999.0,95,-99.99,,,0.00,0,weatherlink.com 1.10,2013-08-05 08:16:00,
2013-08-05 04:32:00,76.0,75.0,29.99,ENE,61,0.0,-999.0,95,-99.99,,,0.00,0,weatherlink.com 1.10,2013-08-05 08:32:00,
2013-08-05 04:46:00,76.1,75.0,29.98,ENE,61,0.0,-999.0,95,-99.99,,,0.00,0,weatherlink.com 1.10,2013-08-05 08:46:00,
2013-08-05 05:01:00,76.1,75.0,29.98,ENE,61,0.0,-999.0,95,-99.99,,,0.00,0,weatherlink.com 1.10,2013-08-05 09:01:00,
2013-08-05 05:16:00,76.0,75.0,29.98,ENE,61,0.0,-999.0,95,-99.99,,,0.00,0,weatherlink.com 1.10,2013-08-05 09:16:00,
2013-08-05 06:02:00,75.8,74.0,29.99,ENE,61,0.0,-999.0,95,-99.99,,,0.00,0,weatherlink.com 1.10,2013-08-05 10:02:00,
2013-08-05 06:46:00,75.5,74.0,30.01,ENE,61,0.0,-999.0,95,-99.99,,,0.00,0,weatherlink.com 1.10,2013-08-05 10:46:00,
2013-08-05 07:17:00,75.4,74.0,30.01,ENE,61,0.0,-999.0,95,-99.99,,,0.00,14,weatherlink.com 1.10,2013-08-05 11:17:00,
2013-08-05 07:46:00,76.0,75.0,30.02,ENE,61,0.0,-999.0,96,-99.99,,,0.00,35,weatherlink.com 1.10,2013-08-05 11:46:00,
2013-08-05 08:02:00,77.0,76.0,30.02,ENE,61,0.0,-999.0,96,-99.99,,,0.00,185,weatherlink.com 1.10,2013-08-05 12:02:00,
2013-08-05 08:17:00,78.6,77.0,30.02,ENE,61,0.0,-999.0,96,-99.99,,,0.00,105,weatherlink.com 1.10,2013-08-05 12:17:00,
2013-08-05 08:32:00,79.7,79.0,30.02,ENE,61,0.0,-999.0,96,-99.99,,,0.00,294,weatherlink.com 1.10,2013-08-05 12:32:00,
2013-08-05 08:47:00,80.6,79.0,30.02,ENE,60,0.0,-999.0,96,-99.99,,,0.00,394,weatherlink.com 1.10,2013-08-05 12:47:00,
2013-08-05 09:02:00,81.7,80.0,30.03,WNW,292,0.0,-999.0,95,-99.99,,,0.00,320,weatherlink.com 1.10,2013-08-05 13:02:00,
2013-08-05 09:17:00,82.8,80.0,30.03,WNW,290,0.0,-999.0,92,-99.99,,,0.00,348,weatherlink.com 1.10,2013-08-05 13:17:00,
2013-08-05 09:32:00,83.8,80.0,30.03,WNW,292,0.0,-999.0,87,-99.99,,,0.00,355,weatherlink.com 1.10,2013-08-05 13:32:00,
2013-08-05 09:47:00,85.0,79.0,30.03,NW,304,0.0,-999.0,83,-99.99,,,0.00,494,weatherlink.com 1.10,2013-08-05 13:47:00,
2013-08-05 10:17:00,85.9,79.0,30.03,WNW,282,2.0,-999.0,79,-99.99,,,0.00,802,weatherlink.com 1.10,2013-08-05 14:17:00,
2013-08-05 10:32:00,86.1,78.0,30.03,WNW,290,1.0,-999.0,77,-99.99,,,0.00,239,weatherlink.com 1.10,2013-08-05 14:32:00,
2013-08-05 11:02:00,88.0,77.0,30.03,West,267,2.0,-999.0,69,-99.99,,,0.00,802,weatherlink.com 1.10,2013-08-05 15:02:00,
2013-08-05 11:33:00,88.9,78.0,30.03,WNW,294,3.0,-999.0,70,-99.99,,,0.00,220,weatherlink.com 1.10,2013-08-05 15:33:00,
2013-08-05 11:48:00,89.2,77.0,30.02,West,261,1.0,-999.0,67,-99.99,,,0.00,893,weatherlink.com 1.10,2013-08-05 15:48:00,
2013-08-05 12:03:00,89.2,77.0,30.02,WSW,257,0.0,-999.0,68,-99.99,,,0.00,390,weatherlink.com 1.10,2013-08-05 16:03:00,
2013-08-05 12:33:00,88.0,78.0,30.02,NW,322,0.0,-999.0,71,-99.99,,,0.00,121,weatherlink.com 1.10,2013-08-05 16:33:00,
2013-08-05 12:48:00,87.6,78.0,30.02,NNE,23,0.0,-999.0,73,-99.99,,,0.00,216,weatherlink.com 1.10,2013-08-05 16:48:00,
2013-08-05 13:03:00,87.5,78.0,30.02,ENE,61,2.0,-999.0,73,-99.99,,,0.00,265,weatherlink.com 1.10,2013-08-05 17:03:00,
2013-08-05 13:17:00,86.3,78.0,30.02,East,96,6.0,-999.0,77,-99.99,,,0.00,239,weatherlink.com 1.10,2013-08-05 17:17:00,
2013-08-05 13:32:00,84.8,78.0,30.02,ENE,74,4.0,-999.0,79,-99.99,,,0.00,232,weatherlink.com 1.10,2013-08-05 17:32:00,
2013-08-05 13:48:00,85.4,78.0,30.00,ENE,73,0.0,-999.0,78,-99.99,,,0.00,610,weatherlink.com 1.10,2013-08-05 17:48:00,
2013-08-05 14:18:00,88.4,79.0,30.00,ENE,76,3.0,-999.0,73,-99.99,,,0.00,397,weatherlink.com 1.10,2013-08-05 18:18:00,
2013-08-05 14:33:00,86.8,78.0,29.99,East,89,0.0,-999.0,75,-99.99,,,0.00,371,weatherlink.com 1.10,2013-08-05 18:33:00,
2013-08-05 14:48:00,84.0,76.0,29.99,East,98,7.0,-999.0,76,-99.99,,,0.00,160,weatherlink.com 1.10,2013-08-05 18:48:00,
2013-08-05 15:18:00,82.2,76.0,30.00,South,186,0.0,-999.0,82,-99.99,,,0.00,30,weatherlink.com 1.10,2013-08-05 19:18:00,
2013-08-05 15:33:00,78.7,74.0,30.01,ENE,66,10.0,-999.0,86,-99.99,,,0.00,23,weatherlink.com 1.10,2013-08-05 19:33:00,
2013-08-05 15:48:00,75.5,73.0,29.99,West,262,0.0,-999.0,90,-99.99,,,0.00,279,weatherlink.com 1.10,2013-08-05 19:48:00,
2013-08-05 16:03:00,79.4,78.0,29.98,West,262,0.0,-999.0,94,-99.99,,,0.00,250,weatherlink.com 1.10,2013-08-05 20:03:00,
2013-08-05 16:18:00,79.1,77.0,29.97,West,262,0.0,-999.0,94,-99.99,,,0.00,197,weatherlink.com 1.10,2013-08-05 20:18:00,
2013-08-05 16:33:00,79.4,78.0,29.96,West,262,0.0,-999.0,94,-99.99,,,0.00,336,weatherlink.com 1.10,2013-08-05 20:33:00,
2013-08-05 16:48:00,79.3,77.0,29.97,West,262,0.0,-999.0,93,-99.99,,,0.00,297,weatherlink.com 1.10,2013-08-05 20:48:00,
2013-08-05 17:03:00,80.1,78.0,29.96,West,263,0.0,-999.0,93,-99.99,,,0.00,149,weatherlink.com 1.10,2013-08-05 21:03:00,
2013-08-05 17:33:00,80.0,78.0,29.95,West,263,0.0,-999.0,92,-99.99,,,0.00,109,weatherlink.com 1.10,2013-08-05 21:33:00,
2013-08-05 17:48:00,80.3,78.0,29.95,West,263,0.0,-999.0,93,-99.99,,,0.00,121,weatherlink.com 1.10,2013-08-05 21:48:00,
2013-08-05 18:03:00,80.5,78.0,29.95,West,263,0.0,-999.0,93,-99.99,,,0.00,91,weatherlink.com 1.10,2013-08-05 22:03:00,
2013-08-05 18:18:00,80.4,78.0,29.95,West,263,0.0,-999.0,93,-99.99,,,0.00,51,weatherlink.com 1.10,2013-08-05 22:18:00,
2013-08-05 18:48:00,78.6,76.0,29.96,WNW,298,0.0,-999.0,90,-99.99,,,0.00,25,weatherlink.com 1.10,2013-08-05 22:48:00,
2013-08-05 19:18:00,78.6,75.0,29.96,WNW,298,0.0,-999.0,87,-99.99,,,0.00,12,weatherlink.com 1.10,2013-08-05 23:18:00,
2013-08-05 19:33:00,78.6,74.0,29.97,WNW,298,0.0,-999.0,86,-99.99,,,0.00,12,weatherlink.com 1.10,2013-08-05 23:33:00,
2013-08-05 19:48:00,78.7,74.0,29.97,WNW,298,0.0,-999.0,85,-99.99,,,0.00,7,weatherlink.com 1.10,2013-08-05 23:48:00,
2013-08-05 20:03:00,78.8,74.0,29.98,WNW,298,0.0,-999.0,85,-99.99,,,0.00,0,weatherlink.com 1.10,2013-08-06 00:03:00,
2013-08-05 20:18:00,78.7,74.0,29.99,WNW,298,0.0,-999.0,86,-99.99,,,0.00,0,weatherlink.com 1.10,2013-08-06 00:18:00,
2013-08-05 20:33:00,78.5,74.0,29.99,WNW,298,0.0,-999.0,86,-99.99,,,0.00,0,weatherlink.com 1.10,2013-08-06 00:33:00,
2013-08-05 21:03:00,78.6,74.0,29.99,WNW,298,0.0,-999.0,86,-99.99,,,0.00,0,weatherlink.com 1.10,2013-08-06 01:03:00,
2013-08-05 21:48:00,78.3,73.0,29.98,WNW,298,0.0,-999.0,84,-99.99,,,0.00,0,weatherlink.com 1.10,2013-08-06 01:48:00,
2013-08-05 22:18:00,78.0,73.0,29.97,WNW,298,0.0,-999.0,84,-99.99,,,0.00,0,weatherlink.com 1.10,2013-08-06 02:18:00,
2013-08-05 22:33:00,77.7,73.0,29.98,WNW,298,0.0,-999.0,86,-99.99,,,0.00,0,weatherlink.com 1.10,2013-08-06 02:33:00,
2013-08-05 22:48:00,77.4,73.0,29.98,WNW,298,0.0,-999.0,87,-99.99,,,0.00,0,weatherlink.com 1.10,2013-08-06 02:48:00,
2013-08-05 23:03:00,77.0,73.0,29.98,WNW,298,0.0,-999.0,87,-99.99,,,0.00,0,weatherlink.com 1.10,2013-08-06 03:03:00,
2013-08-05 23:18:00,76.7,73.0,29.99,WNW,298,0.0,-999.0,88,-99.99,,,0.00,0,weatherlink.com 1.10,2013-08-06 03:18:00,
2013-08-05 23:33:00,76.5,73.0,29.99,WNW,298,0.0,-999.0,89,-99.99,,,0.00,0,weatherlink.com 1.10,2013-08-06 03:33:00,
2013-08-05 23:48:00,76.3,73.0,29.99,WNW,298,0.0,-999.0,89,-99.99,,,0.00,0,weatherlink.com 1.10,2013-08-06 03:48:00,